• In Czech Republic
  • List of Countries
  • For 7 days
  • Water Temperature
  • Satellite Maps
  • Weather Map
  • Weather Widgets
  • user-avatar
    Login

    Hourly Weather Campobasso

    Today, 19 June, Tuesday

    Time Temperature Precipitation Wind Pressure Humidity
    00:00 +15°C° 0.1 mm 4 mps 699 mmHg 79%
    01:00 +17°C° 0 mm 4 mps 699 mmHg 78%
    02:00 +15°C° 0 mm 4 mps 699 mmHg 80%
    03:00 +15°C° 0 mm 4 mps 699 mmHg 81%
    04:00 +16°C° 0 mm 3 mps 699 mmHg 83%
    05:00 +17°C° 0 mm 4 mps 700 mmHg 80%
    06:00 +18°C° 0 mm 4 mps 700 mmHg 77%
    07:00 +20°C° 0 mm 5 mps 701 mmHg 73%
    08:00 +21°C° 0 mm 5 mps 701 mmHg 70%
    09:00 +22°C° 0 mm 5 mps 701 mmHg 66%
    10:00 +23°C° 0 mm 6 mps 702 mmHg 63%
    11:00 +23°C° 0.1 mm 6 mps 702 mmHg 62%
    12:00 +24°C° 0.1 mm 6 mps 702 mmHg 60%
    13:00 +24°C° 0.1 mm 6 mps 702 mmHg 59%
    14:00 +25°C° 0 mm 5 mps 702 mmHg 60%
    15:00 +25°C° 0 mm 5 mps 702 mmHg 60%
    16:00 +25°C° 0 mm 5 mps 701 mmHg 60%
    17:00 +23°C° 0 mm 5 mps 701 mmHg 65%
    18:00 +22°C° 0 mm 4 mps 701 mmHg 70%
    19:00 +20°C° 0 mm 3 mps 701 mmHg 75%
    20:00 +19°C° 0 mm 3 mps 701 mmHg 77%
    21:00 +18°C° 0 mm 3 mps 701 mmHg 79%
    22:00 +17°C° 0 mm 3 mps 701 mmHg 81%
    23:00 +17°C° 0 mm 3 mps 701 mmHg 80%

    Tomorrow, 20 June, Wednesday

    Time Temperature Precipitation Wind Pressure Humidity
    00:00 +17°C° 0 mm 3 mps 701 mmHg 79%
    01:00 +17°C° 0 mm 3 mps 701 mmHg 78%
    02:00 +16°C° 0 mm 3 mps 701 mmHg 79%
    03:00 +16°C° 0 mm 3 mps 701 mmHg 79%
    04:00 +16°C° 0 mm 2 mps 701 mmHg 80%
    05:00 +18°C° 0 mm 2 mps 701 mmHg 76%
    06:00 +19°C° 0 mm 2 mps 702 mmHg 73%
    07:00 +20°C° 0 mm 3 mps 702 mmHg 70%
    08:00 +22°C° 0 mm 3 mps 702 mmHg 66%
    09:00 +24°C° 0 mm 3 mps 703 mmHg 62%
    10:00 +25°C° 0 mm 3 mps 703 mmHg 58%
    11:00 +26°C° 0.6 mm 3 mps 703 mmHg 58%
    12:00 +26°C° 0.6 mm 3 mps 703 mmHg 59%
    13:00 +26°C° 0.6 mm 3 mps 703 mmHg 59%
    14:00 +26°C° 1.1 mm 3 mps 703 mmHg 60%
    15:00 +26°C° 1.1 mm 2 mps 703 mmHg 62%
    16:00 +25°C° 1.1 mm 2 mps 703 mmHg 64%
    17:00 +24°C° 1.2 mm 2 mps 703 mmHg 68%
    18:00 +23°C° 1.2 mm 1 mps 703 mmHg 72%
    19:00 +22°C° 1.2 mm 1 mps 702 mmHg 76%
    20:00 +21°C° 0.4 mm 1 mps 702 mmHg 78%
    21:00 +20°C° 0.4 mm 1 mps 702 mmHg 79%
    22:00 +20°C° 0.4 mm 1 mps 702 mmHg 81%
    23:00 +19°C° 0.1 mm 1 mps 702 mmHg 82%

    Day after tomorrow, 21 June, Thursday

    Time Temperature Precipitation Wind Pressure Humidity
    00:00 +19°C° 0.1 mm 1 mps 702 mmHg 82%
    01:00 +18°C° 0.1 mm 1 mps 702 mmHg 83%
    02:00 +18°C° 0 mm 1 mps 702 mmHg 83%
    03:00 +18°C° 0 mm 1 mps 702 mmHg 83%
    04:00 +18°C° 0 mm 1 mps 701 mmHg 84%
    05:00 +19°C° 0 mm 1 mps 702 mmHg 79%
    06:00 +21°C° 0 mm 1 mps 702 mmHg 75%
    07:00 +20°C° 0 mm 0 mps 702 mmHg 71%
    08:00 +23°C° 0 mm 1 mps 702 mmHg 66%
    09:00 +25°C° 0 mm 1 mps 702 mmHg 60%
    10:00 +26°C° 0 mm 1 mps 703 mmHg 54%
    11:00 +27°C° 0.5 mm 1 mps 703 mmHg 53%
    12:00 +27°C° 0.5 mm 2 mps 702 mmHg 52%
    13:00 +28°C° 0.5 mm 2 mps 702 mmHg 51%
    14:00 +27°C° 0.8 mm 2 mps 702 mmHg 54%
    15:00 +27°C° 0.8 mm 3 mps 702 mmHg 56%
    16:00 +26°C° 0.8 mm 3 mps 701 mmHg 58%
    17:00 +25°C° 0.2 mm 3 mps 701 mmHg 63%
    18:00 +24°C° 0.2 mm 2 mps 701 mmHg 68%
    19:00 +23°C° 0.2 mm 2 mps 700 mmHg 73%
    20:00 +21°C° 0 mm 2 mps 700 mmHg 75%
    21:00 +20°C° 0 mm 2 mps 700 mmHg 77%
    22:00 +19°C° 0 mm 2 mps 700 mmHg 80%
    23:00 +18°C° 0 mm 2 mps 700 mmHg 80%

    22 June, Friday

    Time Temperature Precipitation Wind Pressure Humidity
    00:00 +18°C° 0 mm 2 mps 700 mmHg 81%
    01:00 +18°C° 0 mm 2 mps 699 mmHg 81%
    02:00 +17°C° 0 mm 2 mps 699 mmHg 81%
    03:00 +17°C° 0 mm 2 mps 699 mmHg 82%
    04:00 +17°C° 0 mm 2 mps 699 mmHg 82%
    05:00 +18°C° 0 mm 2 mps 699 mmHg 79%
    06:00 +19°C° 0 mm 2 mps 699 mmHg 76%
    07:00 +20°C° 0 mm 2 mps 699 mmHg 72%
    08:00 +23°C° 0 mm 2 mps 699 mmHg 67%
    09:00 +24°C° 0 mm 2 mps 700 mmHg 61%
    10:00 +26°C° 0 mm 3 mps 700 mmHg 55%
    11:00 +26°C° 0 mm 3 mps 700 mmHg 54%
    12:00 +27°C° 0 mm 3 mps 700 mmHg 53%
    13:00 +27°C° 0 mm 4 mps 699 mmHg 52%
    14:00 +27°C° 0 mm 4 mps 699 mmHg 54%
    15:00 +27°C° 0 mm 4 mps 699 mmHg 56%
    16:00 +26°C° 0 mm 4 mps 698 mmHg 58%
    17:00 +25°C° 0.2 mm 4 mps 698 mmHg 64%
    18:00 +24°C° 0.2 mm 3 mps 698 mmHg 70%
    19:00 +21°C° 0.2 mm 3 mps 698 mmHg 76%
    20:00 +20°C° 0.2 mm 2 mps 698 mmHg 79%
    21:00 +19°C° 0.2 mm 2 mps 698 mmHg 82%
    22:00 +19°C° 0.2 mm 2 mps 699 mmHg 85%
    23:00 +18°C° 0.2 mm 2 mps 698 mmHg 86%

    23 June, Saturday

    Time Temperature Precipitation Wind Pressure Humidity
    00:00 +18°C° 0.2 mm 2 mps 698 mmHg 88%
    01:00 +18°C° 0.2 mm 1 mps 698 mmHg 89%
    02:00 +17°C° 0.1 mm 2 mps 698 mmHg 90%
    03:00 +17°C° 0.1 mm 2 mps 698 mmHg 91%
    04:00 +17°C° 0.1 mm 2 mps 698 mmHg 92%
    05:00 +18°C° 0.1 mm 2 mps 698 mmHg 89%
    06:00 +19°C° 0.1 mm 2 mps 699 mmHg 86%
    07:00 +19°C° 0.1 mm 2 mps 699 mmHg 84%
    08:00 +20°C° 0.5 mm 2 mps 699 mmHg 81%
    09:00 +21°C° 0.5 mm 2 mps 699 mmHg 78%
    10:00 +21°C° 0.5 mm 2 mps 700 mmHg 75%
    11:00 +21°C° 0.6 mm 3 mps 700 mmHg 74%
    12:00 +22°C° 0.6 mm 3 mps 700 mmHg 74%
    13:00 +22°C° 0.6 mm 3 mps 700 mmHg 74%
    14:00 +21°C° 0.7 mm 3 mps 700 mmHg 75%
    15:00 +21°C° 0.7 mm 3 mps 700 mmHg 77%
    16:00 +20°C° 0.7 mm 3 mps 700 mmHg 79%
    17:00 +19°C° 0.1 mm 3 mps 700 mmHg 80%
    18:00 +19°C° 0.1 mm 3 mps 700 mmHg 82%
    19:00 +18°C° 0.1 mm 2 mps 699 mmHg 83%
    20:00 +17°C° 0 mm 2 mps 700 mmHg 84%
    21:00 +16°C° 0 mm 2 mps 700 mmHg 86%
    22:00 +15°C° 0 mm 2 mps 700 mmHg 87%
    23:00 +15°C° 0 mm 2 mps 700 mmHg 86%

    24 June, Sunday

    Time Temperature Precipitation Wind Pressure Humidity
    00:00 +15°C° 0 mm 2 mps 700 mmHg 85%
    01:00 +14°C° 0 mm 2 mps 699 mmHg 85%
    02:00 +14°C° 0 mm 2 mps 699 mmHg 83%
    03:00 +14°C° 0 mm 2 mps 699 mmHg 82%
    04:00 +13°C° 0 mm 2 mps 699 mmHg 81%
    05:00 +15°C° 0 mm 2 mps 699 mmHg 77%
    06:00 +16°C° 0 mm 3 mps 700 mmHg 74%
    07:00 +17°C° 0 mm 3 mps 700 mmHg 71%
    08:00 +19°C° 0 mm 3 mps 700 mmHg 68%
    09:00 +20°C° 0 mm 3 mps 701 mmHg 65%
    10:00 +21°C° 0 mm 4 mps 701 mmHg 62%
    11:00 +22°C° 0.3 mm 4 mps 701 mmHg 61%
    12:00 +22°C° 0.3 mm 4 mps 701 mmHg 60%
    13:00 +22°C° 0.3 mm 4 mps 701 mmHg 58%
    14:00 +22°C° 0.3 mm 4 mps 701 mmHg 58%
    15:00 +22°C° 0.3 mm 4 mps 701 mmHg 58%
    16:00 +22°C° 0.3 mm 4 mps 701 mmHg 58%
    17:00 +20°C° 0 mm 3 mps 700 mmHg 61%
    18:00 +19°C° 0 mm 3 mps 700 mmHg 65%
    19:00 +18°C° 0 mm 2 mps 700 mmHg 68%
    20:00 +17°C° 0 mm 2 mps 700 mmHg 70%
    21:00 +16°C° 0 mm 2 mps 700 mmHg 72%
    22:00 +15°C° 0 mm 2 mps 700 mmHg 74%
    23:00 +14°C° 0 mm 2 mps 700 mmHg 73%
    Show more